Location: Unspecified
(0.0000°N, 0.0000°E)
Time: 03:49:40
(UTC+02:00)

ATLAS 2AS CENTAUR R/B - Visible Passes

Search period start: 01 September 2016 00:00
Search period end: 11 September 2016 00:00
Orbit: 904 x 1308 km, 63.7° (Epoch: 10 August)

Date Brightness Start Highest point End Pass type
(mag) Time Alt. Az. Time Alt. Az. Time Alt. Az.
01 Sep 3.2 07:26:40 10° SSW 07:33:15 66° ESE 07:40:32 10° NNE visible
01 Sep 5.2 20:58:54 10° WNW 21:03:10 17° WSW 21:07:14 10° SSW visible
02 Sep 4.3 06:42:40 10° S 06:48:37 35° ESE 06:55:04 10° NE visible
02 Sep 4.6 20:12:11 10° NW 20:18:31 33° WSW 20:24:23 10° S visible
03 Sep 5.1 05:59:40 10° SSE 06:03:58 18° ESE 06:08:31 10° ENE visible
04 Sep 2.7 07:03:02 10° SSW 07:09:43 87° WNW 07:17:07 10° NNE visible
04 Sep 5.7 20:38:46 10° WSW 20:39:38 10° WSW 20:40:28 10° WSW visible
05 Sep 3.5 06:18:38 10° S 06:25:03 51° ESE 06:32:05 10° NE visible
06 Sep 4.5 05:35:10 11° SSE 05:40:25 27° ESE 05:46:16 10° ENE visible
06 Sep 3.5 07:25:03 10° SW 07:31:00 33° WNW 07:37:29 10° N visible
07 Sep 5.1 04:53:19 11° SE 04:55:45 13° ESE 04:58:49 10° E visible
07 Sep 2.7 06:40:52 17° SW 06:46:12 61° WNW 06:53:30 10° NNE visible
08 Sep 2.8 05:58:57 42° S 06:01:29 74° ESE 06:08:50 10° NNE visible
09 Sep 3.8 05:16:58 39° ESE 05:16:58 39° ESE 05:23:31 10° NE visible
09 Sep 3.9 07:04:30 17° W 07:07:35 23° WNW 07:13:07 10° NNW visible
10 Sep 5.0 04:34:52 17° E 04:34:52 17° E 04:37:14 10° ENE visible
10 Sep 3.0 06:22:24 42° WNW 06:22:43 42° WNW 06:29:38 10° N visible
